星链-11398 (STARLINK-11398)

导读 | 豆包AI

STARLINK-11398是美国SpaceX公司星链星座的成员,于2024年11月9日发射升空。星链计划旨在近地轨道构建数万颗卫星的巨型星座,为全球提供高速宽带互联网接入,尤其可赋能网络基础设施匮乏区域。作为后续补网卫星,该卫星将助力提升星座的覆盖密度与服务稳定性,推动全球无缝网络覆盖目标的实现。

基本信息
目录编号:
61882
目录名称:
STARLINK-11398
国际标识:
2024-204J
轨道中心:
EARTH
卫星名称:
星链-11398
卫星全名:
星链-11398 (STARLINK-11398)
卫星状态:
在轨 (已飞行491 天)
发射日期:
2024-11-09 UTC
国别 :
美国 (US)
星等 :
--
轨道信息
数据来源 国际轨道数据
星历时间: 2026-03-15T05:35:16+0800
12小时前
查看轨道信息
半长轴: 6737.853km
偏心率: 0.0000783
轨道倾角: 53.158°
近地点辐角 111.178°
升交点赤经 330.522°
平近点角 248.932°
近地点: 359.188km
远地点: 360.244km
周期: 91.736分钟
每日圈数: 15.697138
详细信息
固有亮度:
5
最大亮度:
2.5
卫星平台:
Starlink V1.0
覆盖范围:
全球
运营商:
太空探索技术公司
运营商所在国:
美国
制造商(研发单位):
太空探索技术公司
制造商所在国:
美国
使用方式:
暂无
卫星简介
Starlink 计划是 SpaceX 推出的全球卫星互联网项目,通过发射低轨道卫星,为全球尤其是偏远地区提供高速、低延迟的互联网服务。自 2019 年起,Starlink 已部署数千颗卫星,旨在缩小全球数字鸿沟,推动互联网普及。该项目还为军事、航空等行业提供通信支持,带来广泛经济效益。
2D轨道图
3D轨道图
轨道高度分析图
轨道倾角分析图
轨道综合分析图
查看轨道综合分析图